sat.trackr.live / text

‹ back to catalog

STARLINK-11593 [DTC]

NORAD 63318 · 2025-057M

PAYLOAD ACTIVE UNKNOWN

§ Identity

Operator
Country
US
Launch date
2025-03-18
Launch site
AFETR
Launch vehicle
Mass (kg)
RCS (m²)

Purposes: comms

External: N2YO · Heavens-Above · Gunter

§ Orbital elements

Epoch: 2026-09-20T18:47:50.376480Z

Period
91.67 min
Inclination
43.0021°
Eccentricity
0.0002849
Mean motion
15.70885416 rev/d
Perigee alt
354.4 km
Apogee alt
358.3 km
Semi-major
6,734.5 km
B*
1.0115e-3
RAAN
168.3107°
Arg perigee
316.3296°
Mean anomaly
43.7346°
Rev number
8,789

§ Raw data

STARLINK-11593 [DTC]1 63318U 25057M   26263.78322195  .00131678  00000+0  10115-2 0  99912 63318  43.0021 168.3107 0002849 316.3296  43.7346 15.70885416 87896

JSON: /api/v1/satellites/63318 · /tle

For live sub-satellite position, see the globe view (requires WebGL).

§ Visibility from observer

Set your observer location to see the next 7 days of passes ≥ 10°. The values pass through the URL so the page stays shareable.

No JS? Fill the form by hand. The geolocation button needs JavaScript.